N4JEX-1 Weather Reports


Display with metric or nautical units.
time (UTC)temp
F
wind
direction
speed
MPH
gust
MPH
rain 1hr
in
rain 24hr
in
rain mn
in
humidity
%
barometer
mb
20260508115227 50 109 1.0 6.0 0.00 0.21 0.00 91 1017.3
20260508114214 49 80 2.0 4.0 0.00 0.21 0.00 92 1017.1
20260508113301 49 93 2.0 3.0 0.00 0.21 0.00 92 1017.0
20260508112239 49 88 0.0 2.0 0.00 0.21 0.00 92 1016.9
20260508111254 49 91 0.0 2.0 0.00 0.21 0.00 92 1016.8
20260508110249 48 108 1.0 2.0 0.00 0.21 0.00 92 1016.7
20260508105218 48 88 2.0 3.0 0.00 0.22 0.00 92 1016.5
20260508104231 48 98 0.0 2.0 0.00 0.22 0.00 92 1016.2
20260508103219 49 82 1.0 2.0 0.00 0.22 0.00 92 1016.0
20260508102216 49 82 1.0 1.0 0.00 0.22 0.00 93 1015.9
20260508101213 49 82 0.0 0.0 0.00 0.22 0.00 93 1015.8
20260508100225 49 83 0.0 0.0 0.00 0.22 0.00 93 1015.7
20260508095213 50 83 0.0 1.0 0.00 0.23 0.00 93 1015.6
20260508094230 50 83 0.0 3.0 0.00 0.23 0.00 93 1015.4
20260508093228 50 84 1.0 3.0 0.00 0.23 0.00 93 1015.5
20260508092214 50 105 1.0 2.0 0.00 0.23 0.00 93 1015.4
20260508091231 50 105 0.0 2.0 0.00 0.23 0.00 93 1015.3
20260508090228 50 105 1.0 2.0 0.00 0.23 0.00 93 1015.3
20260508085218 50 110 1.0 2.0 0.00 0.25 0.00 93 1015.2
20260508084214 50 110 0.0 2.0 0.00 0.25 0.00 93 1015.1
20260508083231 50 110 0.0 0.0 0.00 0.25 0.00 93 1015.1
20260508082218 50 110 0.0 0.0 0.00 0.25 0.00 93 1015.2
20260508081214 50 110 0.0 0.0 0.00 0.25 0.00 93 1015.1
20260508080221 51 110 0.0 0.0 0.00 0.30 0.00 93 1015.0
20260508075225 51 110 0.0 0.0 0.00 0.30 0.00 93 1014.8
20260508074222 51 110 0.0 0.0 0.00 0.30 0.00 93 1014.8
20260508073238 51 110 0.0 0.0 0.00 0.30 0.00 93 1014.7
20260508072213 51 110 0.0 0.0 0.00 0.30 0.00 93 1014.7
20260508071229 52 110 0.0 0.0 0.00 0.30 0.00 93 1014.5
20260508070225 52 110 0.0 0.0 0.00 0.30 0.00 93 1014.5
20260508065235 52 110 0.0 0.0 0.00 0.37 0.00 93 1014.5
20260508064231 52 110 0.0 0.0 0.00 0.37 0.00 93 1014.4
20260508063227 52 110 0.0 0.0 0.00 0.37 0.00 93 1014.4
20260508062224 53 110 0.0 0.0 0.00 0.37 0.00 93 1014.5
20260508061219 53 110 0.0 0.0 0.00 0.37 0.00 93 1014.5
20260508060321 53 110 0.0 0.0 0.00 0.37 0.00 93 1014.5
20260508055245 53 110 0.0 0.0 0.00 0.52 0.00 93 1014.5
20260508054218 53 110 0.0 0.0 0.00 0.52 0.00 93 1014.4
20260508053234 53 110 0.0 0.0 0.00 0.52 0.00 93 1014.3
20260508052222 53 110 0.0 0.0 0.00 0.52 0.00 93 1014.4
20260508051218 53 110 0.0 0.0 0.00 0.52 0.00 92 1014.3
20260508050214 54 110 0.0 0.0 0.00 0.52 0.00 92 1014.2
20260508045256 54 110 0.0 0.0 0.00 0.52 0.00 92 1014.2
20260508044221 54 110 0.0 0.0 0.00 0.52 0.00 92 1014.1
20260508043237 54 110 0.0 0.0 0.00 0.52 0.00 92 1014.1
20260508042212 55 110 0.0 0.0 0.00 0.52 0.00 92 1014.0
20260508041229 55 110 0.0 0.0 0.00 0.52 0.00 92 1014.0
20260508040223 55 110 0.0 0.0 0.00 0.69 0.52 92 1013.8
20260508035230 55 110 0.0 0.0 0.00 0.69 0.52 92 1013.9
20260508034226 56 110 0.0 0.0 0.00 0.69 0.52 92 1013.8
20260508033213 56 110 0.0 0.0 0.00 0.69 0.52 92 1014.0
20260508032238 56 110 0.0 0.0 0.00 0.69 0.52 92 1013.9
20260508031255 56 110 0.0 0.0 0.00 0.69 0.52 92 1013.9
20260508030221 56 110 0.0 0.0 0.00 0.82 0.52 92 1013.6
20260508025239 56 110 0.0 0.0 0.00 0.82 0.52 92 1013.7
20260508024256 56 110 0.0 0.0 0.00 0.82 0.52 92 1013.7
20260508023222 56 110 0.0 0.0 0.00 0.82 0.52 92 1013.5
20260508022219 57 110 0.0 0.0 0.00 0.82 0.52 92 1013.4
20260508021215 57 110 0.0 1.0 0.00 0.82 0.52 91 1013.0
20260508020227 57 110 0.0 0.0 0.00 0.82 0.52 91 1012.9
20260508015217 58 110 0.0 1.0 0.00 0.92 0.52 92 1012.8
20260508014233 58 110 0.0 0.0 0.00 0.92 0.52 91 1012.7
20260508013249 58 110 0.0 1.0 0.00 0.92 0.52 91 1012.7
20260508012246 58 103 0.0 1.0 0.00 0.92 0.52 91 1012.4
20260508011221 58 103 0.0 2.0 0.00 0.92 0.52 91 1012.1
20260508010237 58 142 0.0 1.0 0.00 0.92 0.52 91 1011.9
20260508005226 58 142 0.0 0.0 0.00 0.96 0.52 91 1011.8
20260508004214 58 143 0.0 1.0 0.00 0.96 0.52 91 1011.3
20260508003259 58 192 0.0 3.0 0.00 0.96 0.52 91 1011.3
20260508002237 59 98 3.0 6.0 0.00 0.96 0.52 91 1011.0
20260508001224 59 94 3.0 6.0 0.00 0.96 0.52 91 1010.9
20260508000242 59 52 3.0 9.0 0.00 0.96 0.52 91 1010.6
20260507235239 59 82 4.0 8.0 0.00 0.96 0.52 91 1010.5
20260507234234 59 86 2.0 7.0 0.00 0.96 0.52 91 1010.4
20260507233222 59 84 3.0 7.0 0.00 0.96 0.52 91 1010.5
20260507232219 59 98 3.0 7.0 0.00 0.96 0.52 90 1010.3
20260507231236 59 94 3.0 10.0 0.00 0.96 0.52 90 1010.1
20260507230231 60 103 3.0 8.0 0.01 0.96 0.52 90 1010.0
20260507225221 60 73 3.0 7.0 0.02 0.96 0.52 90 1009.9
20260507224218 60 99 2.0 6.0 0.02 0.96 0.52 90 1009.8
20260507223242 60 111 3.0 11.0 0.02 0.96 0.52 89 1009.8
20260507222217 61 125 4.0 8.0 0.03 0.96 0.52 89 1009.5
20260507221230 61 81 4.0 8.0 0.03 0.96 0.52 89 1009.9
20260507220218 61 57 2.0 9.0 0.02 0.95 0.51 87 1009.2
20260507215237 62 84 3.0 10.0 0.02 0.95 0.51 87 1008.6
20260507214225 63 107 4.0 9.0 0.01 0.94 0.50 86 1008.7
20260507213222 63 65 5.0 14.0 0.01 0.94 0.50 85 1008.3
20260507212217 64 86 4.0 9.0 0.00 0.93 0.49 85 1008.0
20260507211216 65 82 5.0 11.0 0.00 0.93 0.49 85 1008.1
20260507210231 65 105 5.0 14.0 0.00 0.93 0.49 85 1008.1
20260507205241 66 92 4.0 11.0 0.00 0.93 0.49 83 1008.1
20260507204237 67 88 6.0 16.0 0.00 0.93 0.49 79 1008.0
20260507203225 75 44 3.0 4.0 0.00 0.93 0.49 72 1007.7
20260507202222 75 321 1.0 4.0 0.00 0.93 0.49 70 1007.1
20260507201218 74 333 2.0 4.0 0.00 0.93 0.49 73 1007.4
20260507200234 76 355 1.0 3.0 0.00 0.93 0.49 70 1007.2
20260507195225 76 300 1.0 6.0 0.00 0.93 0.49 74 1007.4
20260507194241 76 281 0.0 2.0 0.00 0.93 0.49 77 1007.7
20260507193228 75 345 2.0 3.0 0.00 0.93 0.49 74 1007.8
20260507192225 74 110 0.0 4.0 0.00 0.93 0.49 78 1007.8
20260507191220 74 263 1.0 3.0 0.00 0.93 0.49 79 1007.9
20260507190216 75 257 0.0 2.0 0.00 0.93 0.49 80 1008.1
20260507185226 74 302 1.0 5.0 0.00 0.93 0.49 82 1008.3
20260507184242 73 5 1.0 4.0 0.00 0.93 0.49 80 1008.1
20260507183239 74 159 1.0 3.0 0.00 0.93 0.49 84 1008.2
20260507182215 71 11 1.0 3.0 0.00 0.93 0.49 84 1008.2
20260507181231 70 5 2.0 5.0 0.00 0.93 0.49 88 1008.4
20260507180218 69 33 1.0 4.0 0.00 1.07 0.49 87 1008.8
20260507175233 71 50 1.0 4.0 0.00 1.07 0.49 89 1008.9
20260507174232 69 355 2.0 4.0 0.00 1.07 0.49 89 1009.0
20260507173217 69 63 2.0 4.0 0.00 1.07 0.49 91 1008.9
20260507172213 68 15 2.0 4.0 0.00 1.07 0.49 91 1008.9
20260507171230 67 13 1.0 3.0 0.00 1.07 0.49 92 1009.3
20260507170226 68 355 1.0 4.0 0.00 1.07 0.49 92 1009.4
20260507165213 69 54 1.0 4.0 0.00 1.07 0.49 93 1009.1
20260507164230 67 355 1.0 2.0 0.00 1.07 0.49 93 1009.1
20260507163217 67 360 0.0 3.0 0.00 1.07 0.49 93 1009.2
20260507162238 67 290 1.0 3.0 0.00 1.07 0.49 93 1009.3
20260507161225 67 336 1.0 3.0 0.00 1.07 0.49 93 1009.7
20260507160223 66 342 1.0 2.0 0.01 1.07 0.49 93 1008.7
20260507155230 66 347 2.0 2.0 0.01 1.07 0.49 94 1009.0
20260507154227 66 11 1.0 2.0 0.02 1.07 0.49 94 1008.6
20260507153224 66 107 2.0 3.0 0.03 1.07 0.49 94 1008.3
20260507152220 66 155 0.0 1.0 0.03 1.07 0.49 94 1009.0
20260507151237 66 156 0.0 1.0 0.03 1.07 0.49 94 1009.2
20260507150224 65 153 0.0 2.0 0.02 1.06 0.48 94 1009.4
20260507145242 65 178 0.0 1.0 0.02 1.05 0.47 94 1010.0
20260507144237 65 178 0.0 2.0 0.02 1.05 0.47 94 1010.3
20260507143236 65 246 1.0 2.0 0.01 1.04 0.46 94 1010.5
20260507142251 65 351 0.0 2.0 0.01 1.04 0.46 94 1009.9
20260507141246 65 329 0.0 0.0 0.01 1.04 0.46 94 1009.9
20260507140214 65 268 0.0 0.0 0.02 1.04 0.46 94 1009.7
20260507135253 65 229 0.0 1.0 0.01 1.03 0.45 94 1009.5
20260507134228 65 229 0.0 1.0 0.01 1.03 0.45 94 1009.4
20260507133216 64 344 0.0 0.0 0.04 1.03 0.45 94 1009.2
20260507132239 64 344 0.0 0.0 0.05 1.03 0.45 94 1009.6
20260507131226 64 344 0.0 2.0 0.08 1.03 0.45 94 1009.6
20260507130222 64 344 0.0 1.0 0.09 1.02 0.44 94 1009.7
20260507125300 64 344 0.0 2.0 0.09 1.02 0.44 94 1010.0
20260507124252 64 33 1.0 3.0 0.10 1.02 0.44 94 1010.3
20260507123218 64 33 1.0 2.0 0.08 0.99 0.41 94 1010.7
20260507122214 64 51 2.0 4.0 0.06 0.97 0.39 94 1011.2
20260507121231 64 342 2.0 3.0 0.05 0.95 0.37 94 1011.5
20260507120227 64 355 1.0 2.0 0.04 0.93 0.35 94 1010.6